Flag for Switzerland Weather past 2 weeks in Winterthur, Switzerland

Now
63 °F

Broken clouds.


Feels Like: 63 °F
Forecast: 48 / 67 °F
Wind: 15 mph from Southwest

Location: Zurich-Kloten

Current Time: Apr 25, 2015 at 4:50:04 PM

Latest Report: Apr 25, 2015 at 3:50 PM


Visibility: N/A

Pressure: 29.89 "Hg

Humidity: 56%

Dew point: 46 °F

Location of WinterthurLocation

Historic Weather in Winterthur — Graph

°F

Winterthur temperature yesterday

Maximum temperature yesterday: 70 °F (at 3:20 PM)
Minimum temperature yesterday: 36 °F (at 6:50 AM)
Average temperature yesterday: 55 °F

Past Weeks' High & Low Weather Summary

 TemperatureHumidityPressure
High73 °F (Apr 15, 2:50 PM)100% (Apr 14, 5:50 AM)30.48 "Hg (Apr 14, 5:50 AM)
Low34 °F (Apr 19, 5:20 AM)19% (Apr 15, 4:20 PM)29.89 "Hg (Apr 25, 3:20 AM)
Average55 °F58%30.17 "Hg
* Reported Apr 10 3:20 PM — Apr 25 3:20 PM, Winterthur, Weather by CustomWeather, © 2015

Note: Actual official high and low records may vary slightly from our data, if they occured in-between our weather recording intervals... More about our weather records

Advertising

Winterthur weather history for previous 24 hours

 ConditionsComfort  
Time TempWeatherWind HumidityBarometerVisibility
3:20 PM
Sat, Apr 25
63 °FBroken clouds.10 mph56%29.89 "HgN/A
2:50 PM64 °FBroken clouds.12 mph52%29.89 "HgN/A
2:20 PM64 °FBroken clouds.12 mph52%29.89 "HgN/A
1:50 PM64 °FLight rain. Partly sunny.12 mph52%29.89 "HgN/A
1:20 PM64 °FLight rain. Partly sunny.10 mph52%29.92 "HgN/A
12:50 PM64 °FBroken clouds.8 mph52%29.92 "HgN/A
12:20 PM63 °FBroken clouds.6 mph49%29.92 "HgN/A
11:50 AM63 °FBroken clouds.6 mph52%29.92 "HgN/A
11:20 AM63 °FOvercast.6 mph56%29.92 "HgN/A
10:50 AM63 °FOvercast.5 mph49%29.92 "HgN/A
10:20 AM59 °FOvercast.3 mph55%29.92 "HgN/A
9:50 AM57 °FOvercast.2 mph63%29.92 "HgN/A
9:20 AM55 °FMore clouds than sun.1 mph72%29.92 "HgN/A
8:50 AM54 °FPartly sunny.1 mph77%29.92 "HgN/A
8:20 AM52 °FSunny.5 mph82%29.92 "Hg10 mi
7:50 AM48 °FSunny.2 mph87%29.92 "Hg10 mi
7:20 AM46 °FSunny.2 mph87%29.92 "Hg10 mi
6:50 AM46 °FPassing clouds.5 mph87%29.92 "HgN/A
6:20 AM45 °FClear.2 mph93%29.89 "Hg10 mi
5:20 AM41 °FClear.2 mph93%29.89 "Hg10 mi
4:50 AM43 °FClear.No wind87%29.89 "Hg10 mi
4:20 AM43 °FClear.3 mph87%29.89 "Hg10 mi
3:50 AM45 °FClear.1 mph87%29.89 "Hg10 mi
3:20 AM43 °FClear.No wind100%29.89 "Hg10 mi
2:50 AM45 °FClear.No wind93%29.92 "Hg10 mi
1:50 AM45 °FClear.No wind87%29.92 "Hg10 mi
1:20 AM46 °FClear.No wind82%29.92 "Hg10 mi
12:50 AM46 °FClear.1 mph82%29.92 "Hg10 mi
12:20 AM48 °FClear.1 mph71%29.92 "Hg10 mi
11:20 PM
Fri, Apr 24
50 °FClear.1 mph71%29.92 "Hg10 mi
10:50 PM52 °FClear.No wind67%29.92 "Hg10 mi
10:20 PM54 °FClear.2 mph63%29.92 "Hg10 mi
9:50 PM54 °FClear.1 mph63%29.92 "Hg10 mi
9:20 PM57 °FSunny.1 mph59%29.92 "Hg10 mi
8:50 PM63 °FSunny.3 mph42%29.92 "Hg10 mi
8:20 PM64 °FSunny.3 mph37%29.92 "Hg10 mi
7:50 PM64 °FSunny.5 mph37%29.92 "Hg10 mi
7:20 PM66 °FSunny.5 mph40%29.92 "Hg10 mi
6:50 PM68 °FSunny.6 mph33%29.92 "Hg10 mi
6:20 PM70 °FPassing clouds.6 mph29%29.92 "HgN/A
5:50 PM70 °FPassing clouds.7 mph25%29.92 "HgN/A
5:20 PM70 °FPassing clouds.8 mph25%29.92 "HgN/A
4:50 PM70 °FPassing clouds.8 mph23%29.92 "HgN/A
4:20 PM70 °FPassing clouds.5 mph27%29.95 "HgN/A
Weather by CustomWeather, © 2015

See weather overviewHow to use our weather pages